Notices

What's New in latest Release from April 7th, 2021:

- Updated Glossary, including Speed of Maximum Gust, and Total Hourly Precipitation

- Updated national and regional climate services offices contacts and prices information

- Addition of station inventory lists for 1981-2010, 1971-2000, and 1961-1990 Normals.

If you haven't already, please take our survey and provide feedback about our website: https://eccc.sondage-survey.ca/f/LanguageSelection.aspx?s=442ca660-fcf1-47c0-95a9-59707d6fd709

Hourly Data Report for January 13, 2021

STE-ANNE-DE-BELLEVUE 1
QUEBEC
Current Station Operator: ECCC - MSC

45°25'38.000" N
73°55'45.000" W
39.00 m
702FHL8
71377
WVQ

Download Data

Hourly Data (January 2021)
Hourly Data Report for January 13, 2021
TIME
LST
Temp Definition
°C
Dew Point Definition
°C
Rel Hum Definition
%
Precip. Amount Definition
mm

Wind Dir Definition
10's deg

Wind Spd Definition
km/h
Visibility Definition
km
Stn Press Definition
kPa
Hmdx Definition


Wind Chill Definition


Weather Definition


00:00 -0.9 -3.5 83 0.0 27 6   101.10   -3 LegendNANA
01:00 -0.8 -3.1 84 0.0 24 8   101.07   -4 LegendNANA
02:00 -0.7 -2.9 85 0.0 25 11   101.12   -4 LegendNANA
03:00 -1.2 -3.0 88 0.0 28 10   101.12   -5 LegendNANA
04:00 -1.3 -3.2 87 0.0 24 11   101.06   -5 LegendNANA
05:00 -1.1 -3.1 86 0.0 23 12   101.03   -5 LegendNANA
06:00 -1.1 -2.8 88 0.0 19 7   100.98   -4 LegendNANA
07:00 -1.2 -3.1 87 0.0 20 8   100.99   -4 LegendNANA
08:00 -1.3 -3.2 87 0.0 20 7   100.96   -4 LegendNANA
09:00 -1.1 -3.1 86 0.0 17 6   100.92   -3 LegendNANA
10:00 -1.0 -3.3 84 0.0 14 8   100.85   -4 LegendNANA
11:00 0.1 -3.0 80 0.0 18 7   100.79     LegendNANA
12:00 0.3 -2.1 84 0.0 18 9   100.70     LegendNANA
13:00 0.3 -0.7 93 0.0 19 9   100.62     LegendNANA
14:00 0.5 -0.4 94 0.0 19 10   100.55     LegendNANA
15:00 0.8 -1.1 87 0.0 19 10   100.51     LegendNANA
16:00 1.1 -1.8 81 0.0 21 7   100.50     LegendNANA
17:00 1.0 -2.6 77 0.0 20 12   100.46     LegendNANA
18:00 0.9 -3.7 71 0.0 19 13   100.43     LegendNANA
19:00 0.8 -3.8 71 0.0 18 9   100.41     LegendNANA
20:00 0.7 -3.5 74 0.0 18 7   100.37     LegendNANA
21:00 0.6 -3.1 76 0.0 18 6   100.35     LegendNANA
22:00 1.0 -2.5 77 0.0 20 9   100.33     LegendNANA
23:00 0.9 -2.2 80 0.0 19 8   100.31     LegendNANA

Notes on Data Quality.

Legend

  • E = Estimated
  • M = Missing
  • NA = Not Available*
  • [empty] = Indicates an unobserved value
Date modified: